ICESAT-2

导读

ICESat-2(冰、云和陆地高程卫星2号)由美国航空航天局(NASA)主导研发,于美国东部时间2018年9月15日发射,是一颗地球观测卫星。卫星搭载先进光子计数激光高度计ATLAS,能够高精度测量冰盖、冰川、海冰等地表高程变化,帮助科学家解析气候变化对冰冻圈的影响,同时可开展全球森林植被高度监测,为地球系统科学研究提供关键观测数据,目前卫星仍在轨运行。

基本信息
目录编号:
43613
目录名称:
ICESAT-2
国际标识:
2018-070A
轨道中心:
EARTH
卫星名称:
ICESAT-2
卫星全名:
--
卫星状态:
在轨 (已飞行2872 天)
发射日期:
2018-09-15 UTC
国别 :
美国 (US)
星等 :
--
轨道信息
数据来源 国际轨道数据 AOE轨道数据
星历时间 2026-07-27T13:29:06+0800
16小时前
查看轨道信息
2026-07-23T01:00:00+0800
5天前
查看轨道信息
半长轴 6858.987km 6859.072km
偏心率 0.0003699 0.0004032
轨道倾角 92.009° 92.009°
近地点辐角 31.018° 44.741°
升交点赤经 301.800° 300.576°
平近点角 329.128° 303.160°
近地点 478.312km 478.169km
远地点 483.388km 483.701km
周期 94.221分钟 94.223分钟
每日圈数 15.28315 15.282864
详细信息
使用方式:
暂无
2D轨道图
3D轨道图
轨道高度分析图
轨道倾角分析图
轨道综合分析图
查看轨道综合分析图